Time,TemperatureF,DewpointF,PressureIn,WindDirection,WindDirectionDegrees,WindSpeedMPH,WindSpeedGustMPH,Humidity,HourlyPrecipIn,Conditions,Clouds,dailyrainin,SolarRadiationWatts/m^2,SoftwareType,DateUTC
2013-03-14 00:02:00,8.0,2.0,-100.00,NW,321,0.0,2.0,77,0.00,,,0.04,0.000000,,2013-03-14 05:02:00,
2013-03-14 00:33:00,8.0,2.0,-100.00,NW,321,0.0,2.0,77,0.00,,,0.04,0.000000,,2013-03-14 05:33:00,
2013-03-14 00:42:00,8.0,2.0,-100.00,NW,321,0.0,2.0,77,0.00,,,0.04,0.000000,,2013-03-14 05:42:00,
2013-03-14 00:53:00,8.0,2.0,-100.00,NW,321,0.0,2.0,77,0.00,,,0.04,0.000000,,2013-03-14 05:53:00,
2013-03-14 01:02:00,7.0,2.0,-100.00,NNE,14,0.0,1.0,79,0.00,,,0.04,0.000000,,2013-03-14 06:02:00,
2013-03-14 01:33:00,7.0,2.0,-100.00,NNE,14,0.0,1.0,79,0.00,,,0.04,0.000000,,2013-03-14 06:33:00,
2013-03-14 01:42:00,7.0,2.0,-100.00,NNE,14,0.0,1.0,79,0.00,,,0.04,0.000000,,2013-03-14 06:42:00,
2013-03-14 01:52:00,7.0,2.0,-100.00,NNE,14,0.0,1.0,79,0.00,,,0.04,0.000000,,2013-03-14 06:52:00,
2013-03-14 02:02:00,5.0,0.0,-100.00,SSE,154,0.0,2.0,81,0.00,,,0.04,0.000000,,2013-03-14 07:02:00,
2013-03-14 02:22:00,5.0,0.0,-100.00,SSE,154,0.0,2.0,81,0.00,,,0.04,0.000000,,2013-03-14 07:22:00,
2013-03-14 02:32:00,5.0,0.0,-100.00,SSE,154,0.0,2.0,81,0.00,,,0.04,0.000000,,2013-03-14 07:32:00,
2013-03-14 02:43:00,5.0,0.0,-100.00,SSE,154,0.0,2.0,81,0.00,,,0.04,0.000000,,2013-03-14 07:43:00,
2013-03-14 02:52:00,5.0,0.0,-100.00,SSE,154,0.0,2.0,81,0.00,,,0.04,0.000000,,2013-03-14 07:52:00,
2013-03-14 03:32:00,3.0,-1.0,-100.00,East,91,0.0,2.0,81,0.00,,,0.04,0.000000,,2013-03-14 08:32:00,
2013-03-14 03:42:00,3.0,-1.0,-100.00,East,91,0.0,2.0,81,0.00,,,0.04,0.000000,,2013-03-14 08:42:00,
2013-03-14 03:52:00,3.0,-1.0,-100.00,East,91,0.0,2.0,81,0.00,,,0.04,0.000000,,2013-03-14 08:52:00,
2013-03-14 04:01:00,3.0,-1.0,-100.00,East,91,0.0,2.0,81,0.00,,,0.04,0.000000,,2013-03-14 09:01:00,
2013-03-14 04:02:00,1.0,-3.0,-100.00,NNE,28,0.0,0.0,82,0.00,,,0.04,0.000000,,2013-03-14 09:02:00,
2013-03-14 04:32:00,1.0,-3.0,-100.00,NNE,28,0.0,0.0,82,0.00,,,0.04,0.000000,,2013-03-14 09:32:00,
2013-03-14 04:42:00,1.0,-3.0,-100.00,NNE,28,0.0,0.0,82,0.00,,,0.04,0.000000,,2013-03-14 09:42:00,
2013-03-14 04:52:00,1.0,-3.0,-100.00,NNE,28,0.0,0.0,82,0.00,,,0.04,0.000000,,2013-03-14 09:52:00,
2013-03-14 05:02:00,0.0,-5.0,-100.00,ENE,73,0.0,0.0,80,0.00,,,0.04,0.000000,,2013-03-14 10:02:00,
2013-03-14 05:32:00,0.0,-5.0,-100.00,ENE,73,0.0,0.0,80,0.00,,,0.04,0.000000,,2013-03-14 10:32:00,
2013-03-14 05:42:00,0.0,-5.0,-100.00,ENE,73,0.0,0.0,80,0.00,,,0.04,0.000000,,2013-03-14 10:42:00,
2013-03-14 05:52:00,0.0,-5.0,-100.00,ENE,73,0.0,0.0,80,0.00,,,0.04,0.000000,,2013-03-14 10:52:00,
2013-03-14 06:02:00,0.0,-5.0,-100.00,ENE,60,0.0,0.0,78,0.00,,,0.04,0.000000,,2013-03-14 11:02:00,
2013-03-14 06:22:00,0.0,-5.0,-100.00,ENE,60,0.0,0.0,78,0.00,,,0.04,0.000000,,2013-03-14 11:22:00,
2013-03-14 06:33:00,0.0,-5.0,-100.00,ENE,60,0.0,0.0,78,0.00,,,0.04,0.000000,,2013-03-14 11:33:00,
2013-03-14 06:42:00,0.0,-5.0,-100.00,ENE,60,0.0,0.0,78,0.00,,,0.04,0.000000,,2013-03-14 11:42:00,
2013-03-14 06:52:00,0.0,-5.0,-100.00,ENE,60,0.0,0.0,78,0.00,,,0.04,0.000000,,2013-03-14 11:52:00,
2013-03-14 07:02:00,-1.0,-6.0,-100.00,NE,44,0.0,1.0,78,0.00,,,0.04,0.000000,,2013-03-14 12:02:00,
2013-03-14 07:33:00,-1.0,-6.0,-100.00,NE,44,0.0,1.0,78,0.00,,,0.04,0.000000,,2013-03-14 12:33:00,
2013-03-14 07:43:00,-1.0,-6.0,-100.00,NE,44,0.0,1.0,78,0.00,,,0.04,0.000000,,2013-03-14 12:43:00,
2013-03-14 07:52:00,-1.0,-6.0,-100.00,NE,44,0.0,1.0,78,0.00,,,0.04,0.000000,,2013-03-14 12:52:00,
2013-03-14 08:02:00,1.0,-4.0,-100.00,NE,55,0.0,0.0,80,0.00,,,0.04,20.000000,,2013-03-14 13:02:00,
2013-03-14 08:32:00,1.0,-4.0,-100.00,NE,55,0.0,0.0,80,0.00,,,0.04,20.000000,,2013-03-14 13:32:00,
2013-03-14 08:43:00,1.0,-4.0,-100.00,NE,55,0.0,0.0,80,0.00,,,0.04,20.000000,,2013-03-14 13:43:00,
2013-03-14 08:52:00,1.0,-4.0,-100.00,NE,55,0.0,0.0,80,0.00,,,0.04,20.000000,,2013-03-14 13:52:00,
2013-03-14 09:02:00,17.0,8.0,-100.00,SE,130,3.0,5.0,67,0.00,,,0.04,152.000000,,2013-03-14 14:02:00,
2013-03-14 09:22:00,17.0,8.0,-100.00,SE,130,3.0,5.0,67,0.00,,,0.04,152.000000,,2013-03-14 14:22:00,
2013-03-14 09:32:00,17.0,8.0,-100.00,SE,130,3.0,5.0,67,0.00,,,0.04,152.000000,,2013-03-14 14:32:00,
2013-03-14 09:42:00,17.0,8.0,-100.00,SE,130,3.0,5.0,67,0.00,,,0.04,152.000000,,2013-03-14 14:42:00,
2013-03-14 09:53:00,17.0,8.0,-100.00,SE,130,3.0,5.0,67,0.00,,,0.04,152.000000,,2013-03-14 14:53:00,
2013-03-14 10:02:00,24.0,9.0,-100.00,SSE,160,5.0,12.0,52,0.00,,,0.04,246.000000,,2013-03-14 15:02:00,
2013-03-14 10:22:00,24.0,9.0,-100.00,SSE,160,5.0,12.0,52,0.00,,,0.04,246.000000,,2013-03-14 15:22:00,
2013-03-14 10:33:00,24.0,9.0,-100.00,SSE,160,5.0,12.0,52,0.00,,,0.04,246.000000,,2013-03-14 15:33:00,
2013-03-14 10:43:00,24.0,9.0,-100.00,SSE,160,5.0,12.0,52,0.00,,,0.04,246.000000,,2013-03-14 15:43:00,
2013-03-14 10:52:00,24.0,9.0,-100.00,SSE,160,5.0,12.0,52,0.00,,,0.04,246.000000,,2013-03-14 15:52:00,
2013-03-14 11:02:00,28.0,7.0,-100.00,South,191,6.0,12.0,41,0.00,,,0.04,361.000000,,2013-03-14 16:02:00,
2013-03-14 11:23:00,28.0,7.0,-100.00,South,191,6.0,12.0,41,0.00,,,0.04,361.000000,,2013-03-14 16:23:00,
2013-03-14 11:33:00,28.0,7.0,-100.00,South,191,6.0,12.0,41,0.00,,,0.04,361.000000,,2013-03-14 16:33:00,
2013-03-14 11:42:00,28.0,7.0,-100.00,South,191,6.0,12.0,41,0.00,,,0.04,361.000000,,2013-03-14 16:42:00,
2013-03-14 11:52:00,28.0,7.0,-100.00,South,191,6.0,12.0,41,0.00,,,0.04,361.000000,,2013-03-14 16:52:00,
2013-03-14 12:02:00,36.0,18.0,-100.00,South,175,6.0,14.0,47,0.00,,,0.02,505.000000,,2013-03-14 17:02:00,
2013-03-14 12:33:00,36.0,18.0,-100.00,South,175,6.0,14.0,47,0.00,,,0.02,505.000000,,2013-03-14 17:33:00,
2013-03-14 12:42:00,36.0,18.0,-100.00,South,175,6.0,14.0,47,0.00,,,0.02,505.000000,,2013-03-14 17:42:00,
2013-03-14 12:52:00,36.0,18.0,-100.00,South,175,6.0,14.0,47,0.00,,,0.02,505.000000,,2013-03-14 17:52:00,
2013-03-14 13:02:00,36.0,20.0,-100.00,SW,221,5.0,11.0,52,0.00,,,0.01,578.000000,,2013-03-14 18:02:00,
2013-03-14 13:23:00,36.0,20.0,-100.00,SW,221,5.0,11.0,52,0.00,,,0.01,578.000000,,2013-03-14 18:23:00,
2013-03-14 13:33:00,36.0,20.0,-100.00,SW,221,5.0,11.0,52,0.00,,,0.01,578.000000,,2013-03-14 18:33:00,
2013-03-14 13:43:00,36.0,20.0,-100.00,SW,221,5.0,11.0,52,0.00,,,0.01,578.000000,,2013-03-14 18:43:00,
2013-03-14 13:52:00,36.0,20.0,-100.00,SW,221,5.0,11.0,52,0.00,,,0.01,578.000000,,2013-03-14 18:52:00,
2013-03-14 14:02:00,33.0,21.0,-100.00,SW,219,6.0,12.0,62,0.00,,,0.01,219.000000,,2013-03-14 19:02:00,
2013-03-14 14:23:00,33.0,21.0,-100.00,SW,219,6.0,12.0,62,0.00,,,0.01,219.000000,,2013-03-14 19:23:00,
2013-03-14 14:32:00,33.0,21.0,-100.00,SW,219,6.0,12.0,62,0.00,,,0.01,219.000000,,2013-03-14 19:32:00,
2013-03-14 14:43:00,33.0,21.0,-100.00,SW,219,6.0,12.0,62,0.00,,,0.01,219.000000,,2013-03-14 19:43:00,
2013-03-14 14:52:00,33.0,21.0,-100.00,SW,219,6.0,12.0,62,0.00,,,0.01,219.000000,,2013-03-14 19:52:00,
2013-03-14 15:02:00,35.0,22.0,-100.00,SSW,206,6.0,13.0,59,0.00,,,0.00,303.000000,,2013-03-14 20:02:00,
2013-03-14 15:32:00,35.0,22.0,-100.00,SSW,206,6.0,13.0,59,0.00,,,0.00,303.000000,,2013-03-14 20:32:00,
2013-03-14 15:42:00,35.0,22.0,-100.00,SSW,206,6.0,13.0,59,0.00,,,0.00,303.000000,,2013-03-14 20:42:00,
2013-03-14 15:52:00,35.0,22.0,-100.00,SSW,206,6.0,13.0,59,0.00,,,0.00,303.000000,,2013-03-14 20:52:00,
2013-03-14 16:02:00,36.0,23.0,-100.00,SSW,210,5.0,12.0,59,0.00,,,0.00,335.000000,,2013-03-14 21:02:00,
2013-03-14 16:33:00,36.0,23.0,-100.00,SSW,210,5.0,12.0,59,0.00,,,0.00,335.000000,,2013-03-14 21:33:00,
2013-03-14 16:43:00,36.0,23.0,-100.00,SSW,210,5.0,12.0,59,0.00,,,0.00,335.000000,,2013-03-14 21:43:00,
2013-03-14 16:53:00,36.0,23.0,-100.00,SSW,210,5.0,12.0,59,0.00,,,0.00,335.000000,,2013-03-14 21:53:00,
2013-03-14 17:02:00,38.0,25.0,-100.00,SSW,202,6.0,13.0,59,0.00,,,0.00,290.000000,,2013-03-14 22:02:00,
2013-03-14 17:23:00,38.0,25.0,-100.00,SSW,202,6.0,13.0,59,0.00,,,0.00,290.000000,,2013-03-14 22:23:00,
2013-03-14 17:33:00,38.0,25.0,-100.00,SSW,202,6.0,13.0,59,0.00,,,0.00,290.000000,,2013-03-14 22:33:00,
2013-03-14 17:42:00,38.0,25.0,-100.00,SSW,202,6.0,13.0,59,0.00,,,0.00,290.000000,,2013-03-14 22:42:00,
2013-03-14 17:52:00,38.0,25.0,-100.00,SSW,202,6.0,13.0,59,0.00,,,0.00,290.000000,,2013-03-14 22:52:00,
2013-03-14 18:02:00,36.0,23.0,-100.00,SSW,209,6.0,14.0,60,0.00,,,0.00,245.000000,,2013-03-14 23:02:00,
2013-03-14 18:33:00,36.0,23.0,-100.00,SSW,209,6.0,14.0,60,0.00,,,0.00,245.000000,,2013-03-14 23:33:00,
2013-03-14 18:43:00,36.0,23.0,-100.00,SSW,209,6.0,14.0,60,0.00,,,0.00,245.000000,,2013-03-14 23:43:00,
2013-03-14 18:53:00,36.0,23.0,-100.00,SSW,209,6.0,14.0,60,0.00,,,0.00,245.000000,,2013-03-14 23:53:00,
2013-03-14 19:02:00,33.0,24.0,-100.00,SW,216,3.0,12.0,68,0.00,,,0.00,65.000000,,2013-03-15 00:02:00,
2013-03-14 19:33:00,33.0,24.0,-100.00,SW,216,3.0,12.0,68,0.00,,,0.00,65.000000,,2013-03-15 00:33:00,
2013-03-14 19:42:00,33.0,24.0,-100.00,SW,216,3.0,12.0,68,0.00,,,0.00,65.000000,,2013-03-15 00:42:00,
2013-03-14 19:52:00,33.0,24.0,-100.00,SW,216,3.0,12.0,68,0.00,,,0.00,65.000000,,2013-03-15 00:52:00,
2013-03-14 20:02:00,31.0,23.0,-100.00,WSW,237,4.0,10.0,73,0.00,,,0.00,1.000000,,2013-03-15 01:02:00,
2013-03-14 20:33:00,31.0,23.0,-100.00,WSW,237,4.0,10.0,73,0.00,,,0.00,1.000000,,2013-03-15 01:33:00,
2013-03-14 20:43:00,31.0,23.0,-100.00,WSW,237,4.0,10.0,73,0.00,,,0.00,1.000000,,2013-03-15 01:43:00,
2013-03-14 20:52:00,31.0,23.0,-100.00,WSW,237,4.0,10.0,73,0.00,,,0.00,1.000000,,2013-03-15 01:52:00,
2013-03-14 21:02:00,30.0,23.0,-100.00,SW,234,4.0,10.0,76,0.00,,,0.00,0.000000,,2013-03-15 02:02:00,
2013-03-14 21:22:00,30.0,23.0,-100.00,SW,234,4.0,10.0,76,0.00,,,0.00,0.000000,,2013-03-15 02:22:00,
2013-03-14 21:32:00,30.0,23.0,-100.00,SW,234,4.0,10.0,76,0.00,,,0.00,0.000000,,2013-03-15 02:32:00,
2013-03-14 21:42:00,30.0,23.0,-100.00,SW,234,4.0,10.0,76,0.00,,,0.00,0.000000,,2013-03-15 02:42:00,
2013-03-14 21:52:00,30.0,23.0,-100.00,SW,234,4.0,10.0,76,0.00,,,0.00,0.000000,,2013-03-15 02:52:00,
2013-03-14 22:02:00,28.0,23.0,-100.00,SSW,211,2.0,8.0,80,0.00,,,0.00,0.000000,,2013-03-15 03:02:00,
2013-03-14 22:33:00,28.0,23.0,-100.00,SSW,211,2.0,8.0,80,0.00,,,0.00,0.000000,,2013-03-15 03:33:00,
2013-03-14 22:43:00,28.0,23.0,-100.00,SSW,211,2.0,8.0,80,0.00,,,0.00,0.000000,,2013-03-15 03:43:00,
2013-03-14 22:53:00,28.0,23.0,-100.00,SSW,211,2.0,8.0,80,0.00,,,0.00,0.000000,,2013-03-15 03:53:00,
2013-03-14 23:02:00,29.0,23.0,-100.00,WSW,255,3.0,6.0,78,0.00,,,0.00,0.000000,,2013-03-15 04:02:00,
2013-03-14 23:33:00,29.0,23.0,-100.00,WSW,255,3.0,6.0,78,0.00,,,0.00,0.000000,,2013-03-15 04:33:00,
2013-03-14 23:43:00,29.0,23.0,-100.00,WSW,255,3.0,6.0,78,0.00,,,0.00,0.000000,,2013-03-15 04:43:00,
2013-03-14 23:53:00,29.0,23.0,-100.00,WSW,255,3.0,6.0,78,0.00,,,0.00,0.000000,,2013-03-15 04:53:00,